Location: Arcones
(41.1182°N, 3.7238°W)
Time: 07:33:16
(UTC+00:00)

IRIDIUM 106 - Pass Details

Date: 20 March 2026
Orbit: 776 x 780 km, 86.4° (Epoch: 18 April)

Event Time Altitude Azimuth Distance (km) Brightness Sun altitude
Exits shadow 21:59:43 23° 286° (WNW) 1,606 6.4 -37.7°
Drops below altitude 10° 22:03:38 10° 335° (NNW) 2,339 7.4 -38.2°
Sets 22:06:28 0° 350° (N) 3,271 8.2 -38.6°
